Tracking 28096 objects as of 28-Sep-2023
HD Live streaming from Space Station
objects crossing your sky now

COSMOS 1579 COOLANT

Track COSMOS 1579 COOLANT now!
10-day predictions


NORAD ID: 26521
Int'l Code: 1984-069N
Perigee: 894.5 km
Apogee: 968.7 km
Inclination: 65.1 °
Period: 103.5 minutes
Semi major axis: 7302 km
RCS: 0.0042 m2 (small)
Launch date: June 29, 1984
Source: Commonwealth of Independent States (former USSR) (CIS)
Launch site: TYURATAM MISSILE AND SPACE COMPLEX (TTMTR)

Note: This is SATELLITE DEBRIS
Your satellite tracking list
Your tracking list is empty




NASA's NSSDC Master Catalog

Two Line Element Set (TLE):
1 26521U 84069N   23266.54760658  .00000225  00000-0  24764-3 0  9998
2 26521  65.0507 325.2384 0050815 332.2295  27.6058 13.91201862196066
Source of the keplerian elements: AFSPC